When you browse on this site, cookies collect data to enhance your experience and personalize the content and advertising you see.
Visit our Privacy Policy to learn more. By continuing to use the site, you agree to this use of cookies and data.
  • In Hungary
  • List of Countries
  • For 7 days
  • Water Temperature
  • Weather Map
  • News
  • Weather Widgets
  • user-avatar
    Login

    Hourly Weather Piterskoe

    Today, 22 October, Tuesday

    Time Temperature Precipitation Wind Pressure Humidity
    00:00 +12°C° 0 mm 4 mps 751 mmHg 81%
    01:00 +12°C° 0.1 mm 3 mps 752 mmHg 84%
    02:00 +11°C° 0.1 mm 3 mps 752 mmHg 86%
    03:00 +12°C° 0.1 mm 2 mps 752 mmHg 89%
    04:00 +12°C° 0.6 mm 2 mps 752 mmHg 91%
    05:00 +12°C° 0.6 mm 2 mps 752 mmHg 93%
    06:00 +12°C° 0.6 mm 2 mps 753 mmHg 95%
    07:00 +12°C° 0.1 mm 2 mps 753 mmHg 93%
    08:00 +12°C° 0.1 mm 2 mps 753 mmHg 91%
    09:00 +12°C° 0.1 mm 2 mps 753 mmHg 89%
    10:00 +13°C° 0 mm 2 mps 754 mmHg 82%
    11:00 +14°C° 0 mm 2 mps 754 mmHg 75%
    12:00 +15°C° 0 mm 1 mps 754 mmHg 68%
    13:00 +15°C° 0 mm 2 mps 754 mmHg 66%
    14:00 +15°C° 0 mm 2 mps 754 mmHg 63%
    15:00 +15°C° 0 mm 2 mps 754 mmHg 61%
    16:00 +14°C° 0 mm 1 mps 754 mmHg 67%
    17:00 +13°C° 0 mm 1 mps 754 mmHg 72%
    18:00 +11°C° 0 mm 1 mps 754 mmHg 78%
    19:00 +11°C° 0 mm 1 mps 754 mmHg 80%
    20:00 +11°C° 0 mm 1 mps 754 mmHg 81%
    21:00 +10°C° 0 mm 1 mps 754 mmHg 83%
    22:00 +10°C° 0 mm 1 mps 754 mmHg 85%
    23:00 +10°C° 0 mm 1 mps 754 mmHg 87%

    Tomorrow, 23 October, Wednesday

    Time Temperature Precipitation Wind Pressure Humidity
    00:00 +8°C° 0 mm 2 mps 753 mmHg 88%
    01:00 +8°C° 0 mm 2 mps 753 mmHg 90%
    02:00 +8°C° 0 mm 2 mps 753 mmHg 91%
    03:00 +8°C° 0 mm 2 mps 753 mmHg 93%
    04:00 +9°C° 0 mm 3 mps 753 mmHg 92%
    05:00 +9°C° 0 mm 3 mps 752 mmHg 91%
    06:00 +10°C° 0 mm 4 mps 752 mmHg 90%
    07:00 +11°C° 0 mm 4 mps 752 mmHg 89%
    08:00 +10°C° 0 mm 5 mps 752 mmHg 87%
    09:00 +12°C° 0 mm 5 mps 752 mmHg 86%
    10:00 +12°C° 0 mm 5 mps 752 mmHg 86%
    11:00 +13°C° 0 mm 4 mps 751 mmHg 85%
    12:00 +13°C° 0 mm 4 mps 751 mmHg 85%
    13:00 +13°C° 0.2 mm 3 mps 751 mmHg 85%
    14:00 +14°C° 0.2 mm 3 mps 751 mmHg 85%
    15:00 +14°C° 0.2 mm 3 mps 751 mmHg 85%
    16:00 +14°C° 0.1 mm 3 mps 751 mmHg 86%
    17:00 +13°C° 0.1 mm 3 mps 750 mmHg 87%
    18:00 +13°C° 0.1 mm 3 mps 750 mmHg 88%
    19:00 +13°C° 0 mm 3 mps 750 mmHg 89%
    20:00 +13°C° 0 mm 2 mps 750 mmHg 90%
    21:00 +13°C° 0 mm 2 mps 750 mmHg 92%
    22:00 +13°C° 0 mm 2 mps 751 mmHg 93%
    23:00 +12°C° 0 mm 2 mps 751 mmHg 93%

    Day after tomorrow, 24 October, Thursday

    Time Temperature Precipitation Wind Pressure Humidity
    00:00 +12°C° 0 mm 1 mps 751 mmHg 94%
    01:00 +11°C° 0 mm 1 mps 751 mmHg 95%
    02:00 +11°C° 0 mm 1 mps 751 mmHg 95%
    03:00 +11°C° 0 mm 1 mps 751 mmHg 95%
    04:00 +10°C° 0 mm 0 mps 751 mmHg 95%
    05:00 +9°C° 0 mm 0 mps 751 mmHg 95%
    06:00 +9°C° 0 mm 0 mps 751 mmHg 95%
    07:00 +10°C° 0 mm 0 mps 752 mmHg 93%
    08:00 +10°C° 0 mm 0 mps 752 mmHg 91%
    09:00 +11°C° 0 mm 0 mps 752 mmHg 89%
    10:00 +12°C° 0 mm 0 mps 752 mmHg 85%
    11:00 +13°C° 0 mm 0 mps 752 mmHg 80%
    12:00 +14°C° 0 mm 0 mps 752 mmHg 76%
    13:00 +15°C° 0 mm 1 mps 752 mmHg 75%
    14:00 +15°C° 0 mm 1 mps 752 mmHg 75%
    15:00 +15°C° 0 mm 1 mps 752 mmHg 74%
    16:00 +14°C° 0 mm 1 mps 752 mmHg 77%
    17:00 +13°C° 0 mm 1 mps 752 mmHg 79%
    18:00 +13°C° 0 mm 1 mps 752 mmHg 82%
    19:00 +12°C° 0 mm 1 mps 752 mmHg 83%
    20:00 +12°C° 0 mm 1 mps 753 mmHg 84%
    21:00 +10°C° 0 mm 2 mps 753 mmHg 85%
    22:00 +10°C° 0 mm 2 mps 753 mmHg 86%
    23:00 +10°C° 0 mm 2 mps 753 mmHg 87%

    25 October, Friday

    Time Temperature Precipitation Wind Pressure Humidity
    00:00 +10°C° 0 mm 2 mps 753 mmHg 88%
    01:00 +9°C° 0 mm 2 mps 753 mmHg 88%
    02:00 +9°C° 0 mm 2 mps 753 mmHg 87%
    03:00 +9°C° 0 mm 2 mps 753 mmHg 87%
    04:00 +9°C° 0 mm 2 mps 753 mmHg 88%
    05:00 +9°C° 0 mm 2 mps 753 mmHg 88%
    06:00 +9°C° 0 mm 2 mps 753 mmHg 88%
    07:00 +9°C° 0 mm 2 mps 754 mmHg 87%
    08:00 +9°C° 0 mm 2 mps 754 mmHg 85%
    09:00 +10°C° 0 mm 1 mps 754 mmHg 84%
    10:00 +11°C° 0 mm 1 mps 754 mmHg 79%
    11:00 +12°C° 0 mm 1 mps 754 mmHg 74%
    12:00 +13°C° 0 mm 1 mps 754 mmHg 69%
    13:00 +14°C° 0 mm 1 mps 754 mmHg 68%
    14:00 +14°C° 0 mm 1 mps 754 mmHg 68%
    15:00 +14°C° 0 mm 1 mps 754 mmHg 67%
    16:00 +13°C° 0 mm 1 mps 754 mmHg 71%
    17:00 +12°C° 0 mm 1 mps 754 mmHg 76%
    18:00 +11°C° 0 mm 1 mps 754 mmHg 81%
    19:00 +10°C° 0 mm 1 mps 754 mmHg 82%
    20:00 +10°C° 0 mm 1 mps 754 mmHg 83%
    21:00 +9°C° 0 mm 1 mps 754 mmHg 85%
    22:00 +9°C° 0 mm 1 mps 754 mmHg 86%
    23:00 +9°C° 0 mm 1 mps 754 mmHg 88%

    26 October, Saturday

    Time Temperature Precipitation Wind Pressure Humidity
    00:00 +9°C° 0 mm 1 mps 754 mmHg 90%
    01:00 +9°C° 0 mm 1 mps 754 mmHg 91%
    02:00 +9°C° 0 mm 1 mps 754 mmHg 92%
    03:00 +8°C° 0 mm 2 mps 754 mmHg 94%
    04:00 +8°C° 0 mm 2 mps 754 mmHg 94%
    05:00 +8°C° 0 mm 2 mps 754 mmHg 95%
    06:00 +8°C° 0 mm 2 mps 754 mmHg 96%
    07:00 +9°C° 0 mm 2 mps 754 mmHg 92%
    08:00 +10°C° 0 mm 3 mps 754 mmHg 89%
    09:00 +11°C° 0 mm 3 mps 754 mmHg 86%
    10:00 +12°C° 0 mm 4 mps 754 mmHg 78%
    11:00 +14°C° 0 mm 4 mps 754 mmHg 71%
    12:00 +15°C° 0 mm 4 mps 753 mmHg 63%
    13:00 +15°C° 0 mm 4 mps 753 mmHg 61%
    14:00 +15°C° 0 mm 4 mps 753 mmHg 59%
    15:00 +15°C° 0 mm 4 mps 752 mmHg 57%
    16:00 +14°C° 0 mm 4 mps 752 mmHg 60%
    17:00 +13°C° 0 mm 4 mps 752 mmHg 63%
    18:00 +12°C° 0 mm 4 mps 752 mmHg 66%
    19:00 +12°C° 0 mm 4 mps 752 mmHg 65%
    20:00 +12°C° 0 mm 5 mps 751 mmHg 64%
    21:00 +10°C° 0 mm 5 mps 751 mmHg 63%
    22:00 +10°C° 0 mm 5 mps 751 mmHg 63%
    23:00 +10°C° 0 mm 5 mps 751 mmHg 63%

    27 October, Sunday

    Time Temperature Precipitation Wind Pressure Humidity
    00:00 +10°C° 0 mm 5 mps 750 mmHg 63%
    01:00 +9°C° 0 mm 5 mps 750 mmHg 64%
    02:00 +9°C° 0 mm 5 mps 750 mmHg 64%
    03:00 +9°C° 0 mm 5 mps 750 mmHg 65%
    04:00 +9°C° 0 mm 5 mps 749 mmHg 65%
    05:00 +9°C° 0 mm 5 mps 749 mmHg 66%
    06:00 +8°C° 0 mm 5 mps 749 mmHg 66%
    07:00 +9°C° 0 mm 6 mps 749 mmHg 64%
    08:00 +10°C° 0 mm 6 mps 748 mmHg 62%
    09:00 +10°C° 0 mm 7 mps 748 mmHg 59%
    10:00 +11°C° 0 mm 7 mps 748 mmHg 56%
    11:00 +14°C° 0 mm 7 mps 747 mmHg 53%
    12:00 +15°C° 0 mm 8 mps 747 mmHg 50%
    13:00 +15°C° 0 mm 7 mps 747 mmHg 50%
    14:00 +15°C° 0 mm 7 mps 746 mmHg 50%
    15:00 +15°C° 0 mm 7 mps 745 mmHg 50%
    16:00 +14°C° 0 mm 6 mps 745 mmHg 52%
    17:00 +14°C° 0 mm 6 mps 745 mmHg 54%
    18:00 +13°C° 0 mm 6 mps 744 mmHg 56%
    19:00 +13°C° 0 mm 6 mps 744 mmHg 57%
    20:00 +13°C° 0 mm 6 mps 744 mmHg 59%
    21:00 +13°C° 0 mm 6 mps 743 mmHg 60%
    22:00 +11°C° 0 mm 6 mps 743 mmHg 62%
    23:00 +11°C° 0 mm 6 mps 743 mmHg 65%

    28 October, Monday

    Time Temperature Precipitation Wind Pressure Humidity
    00:00 +11°C° 0 mm 6 mps 742 mmHg 68%
    01:00 +10°C° 0.6 mm 6 mps 742 mmHg 73%
    02:00 +10°C° 0.6 mm 6 mps 742 mmHg 78%
    03:00 +9°C° 0.6 mm 5 mps 742 mmHg 84%
    04:00 +8°C° 1.1 mm 5 mps 742 mmHg 83%
    05:00 +7°C° 1.1 mm 5 mps 742 mmHg 83%
    06:00 +7°C° 1.1 mm 4 mps 743 mmHg 83%
    07:00 +6°C° 0 mm 4 mps 743 mmHg 81%
    08:00 +6°C° 0 mm 4 mps 744 mmHg 79%
    09:00 +6°C° 0 mm 4 mps 744 mmHg 77%
    10:00 +7°C° 0 mm 4 mps 744 mmHg 72%
    11:00 +8°C° 0 mm 4 mps 744 mmHg 67%
    12:00 +8°C° 0 mm 4 mps 745 mmHg 63%
    13:00 +8°C° 0 mm 4 mps 744 mmHg 62%
    14:00 +8°C° 0 mm 4 mps 744 mmHg 61%
    15:00 +8°C° 0 mm 4 mps 744 mmHg 60%
    16:00 +7°C° 0 mm 4 mps 744 mmHg 64%
    17:00 +7°C° 0 mm 3 mps 744 mmHg 69%
    18:00 +7°C° 0 mm 3 mps 744 mmHg 73%
    19:00 +5°C° 0 mm 3 mps 744 mmHg 73%
    20:00 +5°C° 0 mm 3 mps 744 mmHg 74%
    21:00 +5°C° 0 mm 3 mps 744 mmHg 74%
    22:00 +4°C° 0 mm 3 mps 743 mmHg 75%
    23:00 +4°C° 0 mm 4 mps 743 mmHg 76%
    Show more